When you browse on this site, cookies collect data to enhance your experience and personalize the content and advertising you see.
Visit our Privacy Policy to learn more. By continuing to use the site, you agree to this use of cookies and data.
  • In Deutschland
  • Länderverzeichnis
  • Für 7 Tage
  • Wassertemperatur
  • Wetterkarte
  • Widgets
  • user-avatar
    Anmelden

    Stündliche Wetter Victoria

    Heute, 25 August, Sonntag

    Zeit Temperatur Niederschläge Wind Luftdruck Luftfeuchtigkeit
    00:00 +7°C° 0 mm 4 m/S 750 mmHg 82%
    01:00 +8°C° 0 mm 3 m/S 751 mmHg 81%
    02:00 +5°C° 0 mm 3 m/S 751 mmHg 85%
    03:00 +4°C° 0 mm 3 m/S 751 mmHg 89%
    04:00 +3°C° 0 mm 3 m/S 751 mmHg 95%
    05:00 +2°C° 0 mm 3 m/S 752 mmHg 95%
    06:00 +2°C° 0 mm 3 m/S 752 mmHg 95%
    07:00 +2°C° 0 mm 3 m/S 753 mmHg 95%
    08:00 +4°C° 0 mm 4 m/S 753 mmHg 86%
    09:00 +6°C° 0 mm 4 m/S 753 mmHg 77%
    10:00 +10°C° 0 mm 4 m/S 754 mmHg 70%
    11:00 +11°C° 0 mm 4 m/S 753 mmHg 67%
    12:00 +11°C° 0 mm 4 m/S 753 mmHg 64%
    13:00 +12°C° 0 mm 4 m/S 753 mmHg 62%
    14:00 +12°C° 0 mm 4 m/S 753 mmHg 62%
    15:00 +12°C° 0 mm 4 m/S 753 mmHg 63%
    16:00 +12°C° 0 mm 4 m/S 753 mmHg 65%
    17:00 +10°C° 0 mm 4 m/S 753 mmHg 68%
    18:00 +7°C° 0 mm 4 m/S 754 mmHg 71%
    19:00 +7°C° 0 mm 3 m/S 754 mmHg 75%
    20:00 +5°C° 0 mm 3 m/S 754 mmHg 76%
    21:00 +4°C° 0 mm 3 m/S 755 mmHg 77%
    22:00 +4°C° 0 mm 3 m/S 755 mmHg 78%
    23:00 +3°C° 0 mm 3 m/S 755 mmHg 81%

    Morgen, 26 August, Montag

    Zeit Temperatur Niederschläge Wind Luftdruck Luftfeuchtigkeit
    00:00 +2°C° 0 mm 3 m/S 755 mmHg 84%
    01:00 +2°C° 0 mm 3 m/S 756 mmHg 87%
    02:00 +2°C° 0 mm 3 m/S 755 mmHg 88%
    03:00 +1°C° 0 mm 3 m/S 755 mmHg 89%
    04:00 +1°C° 0 mm 3 m/S 755 mmHg 90%
    05:00 +1°C° 0 mm 3 m/S 756 mmHg 91%
    06:00 +2°C° 0 mm 2 m/S 756 mmHg 91%
    07:00 +2°C° 0 mm 2 m/S 756 mmHg 92%
    08:00 +5°C° 0 mm 2 m/S 756 mmHg 85%
    09:00 +7°C° 0 mm 2 m/S 756 mmHg 78%
    10:00 +10°C° 0 mm 2 m/S 756 mmHg 70%
    11:00 +12°C° 0 mm 2 m/S 756 mmHg 67%
    12:00 +13°C° 0 mm 3 m/S 756 mmHg 64%
    13:00 +14°C° 0 mm 3 m/S 755 mmHg 60%
    14:00 +14°C° 0 mm 3 m/S 755 mmHg 62%
    15:00 +13°C° 0 mm 3 m/S 755 mmHg 64%
    16:00 +13°C° 0 mm 3 m/S 754 mmHg 65%
    17:00 +11°C° 0 mm 3 m/S 755 mmHg 69%
    18:00 +9°C° 0 mm 3 m/S 755 mmHg 73%
    19:00 +7°C° 0 mm 3 m/S 755 mmHg 77%
    20:00 +7°C° 0 mm 3 m/S 756 mmHg 75%
    21:00 +5°C° 0 mm 3 m/S 756 mmHg 73%
    22:00 +4°C° 0 mm 3 m/S 756 mmHg 72%
    23:00 +4°C° 0 mm 3 m/S 756 mmHg 75%

    übermorgen, 27 August, Dienstag

    Zeit Temperatur Niederschläge Wind Luftdruck Luftfeuchtigkeit
    00:00 +3°C° 0 mm 3 m/S 756 mmHg 78%
    01:00 +4°C° 0 mm 2 m/S 756 mmHg 81%
    02:00 +4°C° 0 mm 2 m/S 756 mmHg 83%
    03:00 +3°C° 0 mm 2 m/S 756 mmHg 86%
    04:00 +3°C° 0 mm 2 m/S 756 mmHg 88%
    05:00 +3°C° 0 mm 2 m/S 756 mmHg 89%
    06:00 +3°C° 0 mm 2 m/S 756 mmHg 90%
    07:00 +3°C° 0 mm 2 m/S 756 mmHg 91%
    08:00 +5°C° 0 mm 2 m/S 756 mmHg 85%
    09:00 +8°C° 0 mm 2 m/S 756 mmHg 79%
    10:00 +12°C° 0 mm 2 m/S 756 mmHg 74%
    11:00 +13°C° 0 mm 2 m/S 756 mmHg 70%
    12:00 +14°C° 0 mm 2 m/S 756 mmHg 66%
    13:00 +14°C° 0 mm 3 m/S 755 mmHg 63%
    14:00 +14°C° 0 mm 3 m/S 755 mmHg 64%
    15:00 +14°C° 0 mm 3 m/S 754 mmHg 65%
    16:00 +14°C° 0 mm 3 m/S 754 mmHg 66%
    17:00 +12°C° 0 mm 3 m/S 754 mmHg 73%
    18:00 +10°C° 0 mm 2 m/S 755 mmHg 80%
    19:00 +8°C° 0 mm 2 m/S 755 mmHg 87%
    20:00 +7°C° 0 mm 2 m/S 755 mmHg 88%
    21:00 +6°C° 0 mm 2 m/S 755 mmHg 90%
    22:00 +5°C° 0 mm 2 m/S 755 mmHg 91%
    23:00 +5°C° 0 mm 2 m/S 755 mmHg 90%

    28 August, Mittwoch

    Zeit Temperatur Niederschläge Wind Luftdruck Luftfeuchtigkeit
    00:00 +5°C° 0 mm 1 m/S 755 mmHg 90%
    01:00 +5°C° 0 mm 1 m/S 755 mmHg 89%
    02:00 +5°C° 0 mm 1 m/S 754 mmHg 90%
    03:00 +4°C° 0 mm 1 m/S 754 mmHg 91%
    04:00 +3°C° 0 mm 0 m/S 754 mmHg 92%
    05:00 +3°C° 0 mm 1 m/S 754 mmHg 93%
    06:00 +3°C° 0 mm 1 m/S 754 mmHg 94%
    07:00 +3°C° 0 mm 1 m/S 754 mmHg 95%
    08:00 +5°C° 0 mm 1 m/S 754 mmHg 91%
    09:00 +6°C° 0 mm 2 m/S 754 mmHg 87%
    10:00 +8°C° 0 mm 2 m/S 754 mmHg 84%
    11:00 +9°C° 0 mm 3 m/S 753 mmHg 80%
    12:00 +11°C° 0 mm 4 m/S 753 mmHg 76%
    13:00 +12°C° 0 mm 4 m/S 752 mmHg 72%
    14:00 +12°C° 0.2 mm 4 m/S 752 mmHg 76%
    15:00 +11°C° 0.2 mm 4 m/S 752 mmHg 80%
    16:00 +11°C° 0.2 mm 4 m/S 752 mmHg 83%
    17:00 +8°C° 2.3 mm 4 m/S 752 mmHg 87%
    18:00 +6°C° 2.3 mm 5 m/S 753 mmHg 91%
    19:00 +3°C° 2.3 mm 5 m/S 753 mmHg 95%
    20:00 +2°C° 0.3 mm 5 m/S 753 mmHg 95%
    21:00 +3°C° 0.3 mm 4 m/S 754 mmHg 94%
    22:00 +3°C° 0.3 mm 4 m/S 754 mmHg 93%
    23:00 +3°C° 0 mm 4 m/S 754 mmHg 91%

    29 August, Donnerstag

    Zeit Temperatur Niederschläge Wind Luftdruck Luftfeuchtigkeit
    00:00 +3°C° 0 mm 4 m/S 754 mmHg 89%
    01:00 +1°C° 0 mm 5 m/S 755 mmHg 87%
    02:00 +1°C° 0 mm 5 m/S 755 mmHg 87%
    03:00 +1°C° 0 mm 5 m/S 755 mmHg 86%
    04:00 0°C° 0 mm 5 m/S 755 mmHg 86%
    05:00 0°C° 0 mm 4 m/S 755 mmHg 87%
    06:00 0°C° 0 mm 4 m/S 756 mmHg 88%
    07:00 0°C° 0 mm 4 m/S 756 mmHg 88%
    08:00 +3°C° 0 mm 4 m/S 756 mmHg 82%
    09:00 +5°C° 0 mm 5 m/S 757 mmHg 75%
    10:00 +8°C° 0 mm 5 m/S 757 mmHg 68%
    11:00 +10°C° 0 mm 4 m/S 757 mmHg 65%
    12:00 +11°C° 0 mm 3 m/S 757 mmHg 61%
    13:00 +13°C° 0 mm 3 m/S 757 mmHg 58%
    14:00 +13°C° 0 mm 3 m/S 757 mmHg 61%
    15:00 +13°C° 0 mm 3 m/S 757 mmHg 65%
    16:00 +13°C° 0 mm 3 m/S 756 mmHg 68%
    17:00 +10°C° 0 mm 3 m/S 757 mmHg 72%
    18:00 +8°C° 0 mm 3 m/S 758 mmHg 76%
    19:00 +5°C° 0 mm 3 m/S 758 mmHg 80%
    20:00 +4°C° 0 mm 3 m/S 759 mmHg 82%
    21:00 +4°C° 0 mm 3 m/S 759 mmHg 84%
    22:00 +3°C° 0 mm 3 m/S 759 mmHg 87%
    23:00 +2°C° 0 mm 3 m/S 759 mmHg 88%

    30 August, Freitag

    Zeit Temperatur Niederschläge Wind Luftdruck Luftfeuchtigkeit
    00:00 +3°C° 0 mm 2 m/S 759 mmHg 89%
    01:00 +2°C° 0 mm 2 m/S 759 mmHg 91%
    02:00 +2°C° 0 mm 2 m/S 759 mmHg 90%
    03:00 +1°C° 0 mm 2 m/S 759 mmHg 90%
    04:00 +2°C° 0 mm 1 m/S 759 mmHg 90%
    05:00 +2°C° 0 mm 1 m/S 759 mmHg 89%
    06:00 +1°C° 0 mm 1 m/S 759 mmHg 89%
    07:00 +1°C° 0 mm 1 m/S 760 mmHg 89%
    08:00 +4°C° 0 mm 1 m/S 759 mmHg 80%
    09:00 +7°C° 0 mm 1 m/S 759 mmHg 72%
    10:00 +9°C° 0 mm 1 m/S 759 mmHg 63%
    11:00 +11°C° 0 mm 1 m/S 759 mmHg 61%
    12:00 +12°C° 0 mm 1 m/S 758 mmHg 59%
    13:00 +13°C° 0 mm 1 m/S 758 mmHg 56%
    14:00 +13°C° 0 mm 1 m/S 757 mmHg 57%
    15:00 +13°C° 0 mm 1 m/S 757 mmHg 58%
    16:00 +13°C° 0 mm 1 m/S 756 mmHg 59%
    17:00 +11°C° 0 mm 1 m/S 757 mmHg 65%
    18:00 +9°C° 0 mm 1 m/S 757 mmHg 72%
    19:00 +6°C° 0 mm 0 m/S 758 mmHg 78%
    20:00 +6°C° 0 mm 1 m/S 758 mmHg 80%
    21:00 +6°C° 0 mm 1 m/S 758 mmHg 81%
    22:00 +5°C° 0 mm 1 m/S 758 mmHg 83%
    23:00 +5°C° 0 mm 1 m/S 758 mmHg 84%
    Mehr zeigen